Flag for Greenland Weather past 2 weeks in Upernavik, Greenland

Now
2 °F

Partly sunny.


Feels Like: -15 °F
Forecast: -16 / -3 °F
Wind: 12 mph from East

Location: Jacobshavn Lufthavn

Current Time: Mar 29, 2015 at 8:11:43 AM

Latest Report: Mar 29, 2015 at 7:00 AM


Visibility: 28 mi

Pressure: 29.47 "Hg

Humidity: N/A

Dew point: N/A

Location of UpernavikLocation

Historic Weather in Upernavik — Graph

°F

Upernavik temperature yesterday

Maximum temperature yesterday: 6 °F (at 4:00 PM)
Minimum temperature yesterday: -3 °F (at 11:00 PM)
Average temperature yesterday: 2 °F

Past Weeks' High & Low Weather Summary

 TemperatureHumidityPressure
High37 °F (Mar 20, 7:00 PM)90% (Mar 21, 5:00 AM)30.09 "Hg (Mar 21, 5:00 AM)
Low-14 °F (Mar 16, 5:00 AM)36% (Mar 19, 8:00 AM)28.88 "Hg (Mar 14, 5:00 AM)
Average13 °F62%29.56 "Hg
* Reported Mar 14 5:00 AM — Mar 29 6:00 AM, Upernavik, Weather by CustomWeather, © 2015

Note: Actual official high and low records may vary slightly from our data, if they occured in-between our weather recording intervals... More about our weather records

Advertising

Upernavik weather history for previous 24 hours

 ConditionsComfort  
Time TempWeatherWind HumidityBarometerVisibility
6:00 AM
Sun, Mar 29
2 °FOvercast.14 mph54%29.47 "Hg31 mi
5:00 AM2 °FOvercast.12 mph54%29.44 "Hg31 mi
4:00 AM2 °FOvercast.12 mph54%29.44 "Hg31 mi
3:00 AM3 °FFrigid.9 mph51%29.44 "Hg31 mi
2:00 AM1 °FPassing clouds.9 mph57%29.44 "Hg31 mi
1:00 AM1 °FOvercast.8 mph53%29.44 "Hg31 mi
12:00 AM0 °FPassing clouds.5 mph50%29.44 "Hg31 mi
11:00 PM
Sat, Mar 28
-3 °FFrigid.3 mph53%29.41 "Hg31 mi
9:00 PM0 °FFrigid.5 mph47%29.41 "Hg31 mi
8:00 PM-1 °FFrigid.5 mph50%29.41 "Hg31 mi
7:00 PM0 °FFrigid.7 mph50%29.41 "Hg31 mi
5:00 PM4 °FFrigid.2 mph46%29.38 "Hg28 mi
4:00 PM6 °FFrigid.3 mph41%29.38 "Hg25 mi
3:00 PM5 °FFrigid.6 mph46%29.38 "Hg28 mi
2:00 PM5 °FFrigid.8 mph43%29.38 "Hg28 mi
1:00 PM5 °FPassing clouds.8 mph46%29.38 "Hg28 mi
12:00 PM5 °FPassing clouds.8 mph41%29.38 "Hg28 mi
11:00 AM3 °FFrigid.12 mph45%29.38 "Hg22 mi
10:00 AM4 °FFrigid.12 mph41%29.38 "Hg28 mi
9:00 AM2 °FFrigid.15 mph48%29.38 "Hg19 mi
8:00 AM2 °FFrigid.16 mph45%29.38 "Hg25 mi
Weather by CustomWeather, © 2015

See weather overviewHow to use our weather pages